When you browse on this site, cookies collect data to enhance your experience and personalize the content and advertising you see.
Visit our Privacy Policy to learn more. By continuing to use the site, you agree to this use of cookies and data.
  • In Lithuania
  • List of Countries
  • For 7 days
  • Water Temperature
  • Satellite Maps
  • Weather Map
  • Weather Widgets
  • user-avatar
    Login

    Hourly Weather Celestyny

    Today, 23 April, Tuesday

    Time Temperature Precipitation Wind Pressure Humidity
    00:00 +9°C° 0 mm 6 mps 753 mmHg 59%
    01:00 +8°C° 0 mm 7 mps 753 mmHg 57%
    02:00 +8°C° 0 mm 7 mps 752 mmHg 57%
    03:00 +8°C° 0 mm 7 mps 752 mmHg 56%
    04:00 +6°C° 0 mm 8 mps 752 mmHg 55%
    05:00 +7°C° 0 mm 8 mps 752 mmHg 54%
    06:00 +7°C° 0 mm 9 mps 752 mmHg 53%
    07:00 +8°C° 0 mm 9 mps 751 mmHg 52%
    08:00 +9°C° 0 mm 10 mps 751 mmHg 49%
    09:00 +12°C° 0 mm 10 mps 751 mmHg 46%
    10:00 +13°C° 0 mm 11 mps 751 mmHg 43%
    11:00 +14°C° 0 mm 11 mps 750 mmHg 43%
    12:00 +16°C° 0 mm 11 mps 750 mmHg 43%
    13:00 +17°C° 0 mm 11 mps 749 mmHg 43%
    14:00 +17°C° 0 mm 10 mps 749 mmHg 43%
    15:00 +17°C° 0 mm 10 mps 749 mmHg 44%
    16:00 +17°C° 0 mm 10 mps 748 mmHg 45%
    17:00 +16°C° 0 mm 9 mps 748 mmHg 47%
    18:00 +15°C° 0 mm 8 mps 748 mmHg 49%
    19:00 +14°C° 0 mm 7 mps 748 mmHg 51%
    20:00 +14°C° 0 mm 7 mps 748 mmHg 52%
    21:00 +12°C° 0 mm 7 mps 748 mmHg 52%
    22:00 +12°C° 0 mm 8 mps 748 mmHg 52%
    23:00 +12°C° 0 mm 7 mps 748 mmHg 53%

    Tomorrow, 24 April, Wednesday

    Time Temperature Precipitation Wind Pressure Humidity
    00:00 +11°C° 0 mm 7 mps 748 mmHg 55%
    01:00 +11°C° 0 mm 7 mps 748 mmHg 56%
    02:00 +11°C° 0 mm 7 mps 748 mmHg 58%
    03:00 +10°C° 0 mm 7 mps 748 mmHg 60%
    04:00 +10°C° 0 mm 7 mps 747 mmHg 62%
    05:00 +10°C° 0 mm 7 mps 747 mmHg 65%
    06:00 +11°C° 0 mm 7 mps 748 mmHg 68%
    07:00 +11°C° 0 mm 7 mps 748 mmHg 72%
    08:00 +12°C° 0 mm 7 mps 748 mmHg 68%
    09:00 +15°C° 0 mm 7 mps 748 mmHg 64%
    10:00 +17°C° 0 mm 7 mps 748 mmHg 60%
    11:00 +17°C° 0 mm 7 mps 748 mmHg 60%
    12:00 +19°C° 0 mm 6 mps 748 mmHg 59%
    13:00 +19°C° 0 mm 6 mps 748 mmHg 59%
    14:00 +19°C° 0 mm 5 mps 748 mmHg 61%
    15:00 +19°C° 0 mm 4 mps 748 mmHg 63%
    16:00 +19°C° 0 mm 3 mps 748 mmHg 64%
    17:00 +18°C° 0 mm 4 mps 748 mmHg 68%
    18:00 +17°C° 0 mm 4 mps 748 mmHg 71%
    19:00 +15°C° 0 mm 4 mps 748 mmHg 74%
    20:00 +15°C° 0 mm 4 mps 748 mmHg 75%
    21:00 +14°C° 0 mm 4 mps 748 mmHg 77%
    22:00 +14°C° 0 mm 5 mps 748 mmHg 78%
    23:00 +14°C° 0 mm 5 mps 748 mmHg 75%

    Day after tomorrow, 25 April, Thursday

    Time Temperature Precipitation Wind Pressure Humidity
    00:00 +14°C° 0 mm 5 mps 748 mmHg 72%
    01:00 +14°C° 0 mm 5 mps 748 mmHg 70%
    02:00 +14°C° 0 mm 5 mps 748 mmHg 73%
    03:00 +13°C° 0 mm 5 mps 748 mmHg 77%
    04:00 +12°C° 0 mm 5 mps 748 mmHg 81%
    05:00 +13°C° 0 mm 5 mps 748 mmHg 78%
    06:00 +14°C° 0 mm 5 mps 748 mmHg 76%
    07:00 +16°C° 0 mm 5 mps 749 mmHg 73%
    08:00 +17°C° 0 mm 5 mps 749 mmHg 69%
    09:00 +20°C° 0 mm 5 mps 749 mmHg 64%
    10:00 +21°C° 0 mm 4 mps 749 mmHg 59%
    11:00 +22°C° 0 mm 4 mps 749 mmHg 56%
    12:00 +23°C° 0 mm 4 mps 749 mmHg 54%
    13:00 +25°C° 0 mm 4 mps 749 mmHg 51%
    14:00 +25°C° 0 mm 4 mps 749 mmHg 50%
    15:00 +25°C° 0 mm 4 mps 749 mmHg 50%
    16:00 +25°C° 0 mm 3 mps 748 mmHg 50%
    17:00 +24°C° 0 mm 3 mps 748 mmHg 56%
    18:00 +21°C° 0 mm 3 mps 748 mmHg 61%
    19:00 +19°C° 0 mm 2 mps 748 mmHg 67%
    20:00 +18°C° 0 mm 3 mps 748 mmHg 68%
    21:00 +18°C° 0 mm 3 mps 748 mmHg 70%
    22:00 +17°C° 0 mm 3 mps 748 mmHg 71%
    23:00 +17°C° 0 mm 3 mps 748 mmHg 71%

    26 April, Friday

    Time Temperature Precipitation Wind Pressure Humidity
    00:00 +17°C° 0 mm 4 mps 747 mmHg 72%
    01:00 +15°C° 0 mm 4 mps 747 mmHg 72%
    02:00 +15°C° 0 mm 4 mps 747 mmHg 73%
    03:00 +15°C° 0 mm 4 mps 747 mmHg 74%
    04:00 +15°C° 0 mm 5 mps 746 mmHg 75%
    05:00 +16°C° 0 mm 5 mps 746 mmHg 72%
    06:00 +17°C° 0 mm 6 mps 746 mmHg 70%
    07:00 +19°C° 0 mm 6 mps 746 mmHg 67%
    08:00 +21°C° 0 mm 6 mps 745 mmHg 61%
    09:00 +22°C° 0 mm 6 mps 745 mmHg 56%
    10:00 +23°C° 0 mm 7 mps 745 mmHg 50%
    11:00 +24°C° 0 mm 6 mps 745 mmHg 49%
    12:00 +26°C° 0 mm 6 mps 745 mmHg 47%
    13:00 +27°C° 0 mm 5 mps 744 mmHg 45%
    14:00 +27°C° 0 mm 5 mps 744 mmHg 46%
    15:00 +27°C° 0 mm 5 mps 744 mmHg 47%
    16:00 +27°C° 0 mm 4 mps 744 mmHg 48%
    17:00 +25°C° 0.2 mm 4 mps 744 mmHg 57%
    18:00 +22°C° 0.2 mm 4 mps 745 mmHg 65%
    19:00 +20°C° 0.2 mm 3 mps 745 mmHg 73%
    20:00 +19°C° 0.5 mm 4 mps 745 mmHg 80%
    21:00 +18°C° 0.5 mm 4 mps 745 mmHg 87%
    22:00 +15°C° 0.5 mm 5 mps 746 mmHg 94%
    23:00 +15°C° 0.6 mm 5 mps 746 mmHg 93%

    27 April, Saturday

    Time Temperature Precipitation Wind Pressure Humidity
    00:00 +15°C° 0.6 mm 5 mps 746 mmHg 93%
    01:00 +15°C° 0.6 mm 5 mps 746 mmHg 93%
    02:00 +14°C° 0.5 mm 5 mps 747 mmHg 92%
    03:00 +14°C° 0.5 mm 5 mps 747 mmHg 92%
    04:00 +13°C° 0.5 mm 5 mps 747 mmHg 91%
    05:00 +11°C° 0.1 mm 6 mps 748 mmHg 88%
    06:00 +11°C° 0.1 mm 6 mps 748 mmHg 86%
    07:00 +10°C° 0.1 mm 6 mps 748 mmHg 83%
    08:00 +10°C° 0.1 mm 5 mps 748 mmHg 81%
    09:00 +10°C° 0.1 mm 5 mps 749 mmHg 79%
    10:00 +12°C° 0.1 mm 5 mps 749 mmHg 77%
    11:00 +12°C° 0.5 mm 5 mps 749 mmHg 77%
    12:00 +12°C° 0.5 mm 4 mps 749 mmHg 77%
    13:00 +13°C° 0.5 mm 4 mps 749 mmHg 77%
    14:00 +12°C° 0.6 mm 4 mps 749 mmHg 80%
    15:00 +12°C° 0.6 mm 3 mps 749 mmHg 83%
    16:00 +12°C° 0.6 mm 3 mps 749 mmHg 85%
    17:00 +12°C° 0.5 mm 3 mps 749 mmHg 87%
    18:00 +11°C° 0.5 mm 3 mps 749 mmHg 89%
    19:00 +12°C° 0.5 mm 2 mps 749 mmHg 91%
    20:00 +12°C° 0.3 mm 2 mps 750 mmHg 92%
    21:00 +12°C° 0.3 mm 2 mps 750 mmHg 92%
    22:00 +12°C° 0.3 mm 2 mps 751 mmHg 93%
    23:00 +11°C° 0.5 mm 3 mps 751 mmHg 92%

    28 April, Sunday

    Time Temperature Precipitation Wind Pressure Humidity
    00:00 +11°C° 0.5 mm 4 mps 751 mmHg 92%
    01:00 +10°C° 0.5 mm 5 mps 752 mmHg 91%
    02:00 +9°C° 0.5 mm 5 mps 752 mmHg 90%
    03:00 +8°C° 0.5 mm 6 mps 752 mmHg 89%
    04:00 +7°C° 0.5 mm 6 mps 753 mmHg 87%
    05:00 +7°C° 0.1 mm 6 mps 753 mmHg 85%
    06:00 +7°C° 0.1 mm 6 mps 754 mmHg 83%
    07:00 +7°C° 0.1 mm 6 mps 754 mmHg 81%
    08:00 +8°C° 0 mm 6 mps 754 mmHg 72%
    09:00 +9°C° 0 mm 6 mps 755 mmHg 64%
    10:00 +10°C° 0 mm 6 mps 755 mmHg 56%
    11:00 +10°C° 0 mm 6 mps 754 mmHg 52%
    12:00 +12°C° 0 mm 5 mps 754 mmHg 48%
    13:00 +13°C° 0 mm 5 mps 754 mmHg 43%
    14:00 +13°C° 0 mm 5 mps 754 mmHg 44%
    15:00 +13°C° 0 mm 4 mps 753 mmHg 44%
    16:00 +13°C° 0 mm 4 mps 753 mmHg 44%
    17:00 +12°C° 0 mm 3 mps 753 mmHg 48%
    18:00 +10°C° 0 mm 2 mps 753 mmHg 52%
    19:00 +10°C° 0 mm 1 mps 753 mmHg 57%
    20:00 +9°C° 0 mm 1 mps 753 mmHg 56%
    21:00 +9°C° 0 mm 1 mps 753 mmHg 56%
    22:00 +7°C° 0 mm 0 mps 754 mmHg 56%
    23:00 +8°C° 0 mm 1 mps 753 mmHg 57%
    Show more